�N����,����,�~����,�C��,���x,�C��,����,���ϕ���,�ő�u�ԕ���,�ő厞����,���˗�,�I�_���x,�n�����x,�ő啗���N��,DTYPE
"23/08/25","00:10",0.0,24.0,95.9,1006.7,319.5,0.2,1.0,343.4,0.00,23.3,26.0,"00:03:28",1
"23/08/25","00:20",0.0,24.0,95.9,1006.0,352.7,0.5,1.0,2.7,0.00,23.3,25.9,"00:15:52",1
"23/08/25","00:30",0.0,24.0,95.9,1005.7,336.0,0.6,1.7,338.6,0.00,23.3,26.3,"00:23:44",1
"23/08/25","00:40",0.0,24.0,96.0,1006.0,238.0,0.2,0.9,248.4,0.00,23.4,26.1,"00:36:32",1
"23/08/25","00:50",0.0,24.1,96.0,1005.7,310.9,0.3,0.9,310.1,0.00,23.5,26.0,"00:48:40",1
"23/08/25","01:00",0.0,24.1,96.0,1005.2,342.5,0.6,1.3,301.6,0.00,23.5,26.1,"00:54:56",1
"23/08/25","01:10",0.0,24.1,96.1,1005.2,9.7,0.6,1.2,346.9,0.00,23.5,26.2,"01:04:56",1
"23/08/25","01:20",0.0,24.0,96.0,1005.5,244.0,0.2,0.9,253.0,0.00,23.4,26.0,"01:15:28",1
"23/08/25","01:30",0.0,24.0,96.2,1005.2,305.4,0.3,1.1,286.8,0.00,23.4,25.9,"01:28:48",1
"23/08/25","01:40",0.0,24.0,96.1,1005.0,324.5,0.3,1.2,343.7,0.00,23.4,26.1,"01:33:12",1
"23/08/25","01:50",0.0,24.2,96.2,1005.2,281.5,0.3,0.6,323.3,0.00,23.6,26.1,"01:41:12",1
"23/08/25","02:00",0.0,24.3,96.1,1005.2,354.1,0.6,1.3,346.8,0.00,23.7,25.9,"01:57:20",1
"23/08/25","02:10",0.0,24.2,96.1,1005.5,289.2,0.5,0.9,350.0,0.00,23.6,25.9,"02:00:08",1
"23/08/25","02:20",0.0,24.2,96.2,1005.0,316.5,0.3,0.8,341.1,0.00,23.6,25.8,"02:15:04",1
"23/08/25","02:30",0.0,24.3,96.2,1005.5,342.1,0.6,1.2,343.5,0.00,23.7,25.9,"02:28:40",1
"23/08/25","02:40",0.0,24.1,96.2,1004.8,277.4,0.1,0.6,302.4,0.00,23.5,25.9,"02:31:04",1
"23/08/25","02:50",0.0,24.3,96.3,1005.2,341.5,0.5,0.8,288.6,0.00,23.7,26.0,"02:41:44",1
"23/08/25","03:00",0.0,24.2,96.3,1005.0,352.6,0.6,1.0,25.9,0.00,23.6,25.8,"02:50:16",1
"23/08/25","03:10",0.0,24.2,96.3,1005.2,310.7,0.3,0.8,337.3,0.00,23.6,25.9,"03:01:04",1
"23/08/25","03:20",0.0,24.2,96.3,1004.8,280.2,0.2,0.8,254.7,0.00,23.6,25.8,"03:14:40",1
"23/08/25","03:30",0.0,24.2,96.4,1005.2,349.1,0.2,0.6,338.2,0.00,23.6,25.7,"03:24:48",1
"23/08/25","03:40",0.0,24.3,96.4,1005.7,313.5,0.3,0.8,311.9,0.00,23.7,25.8,"03:36:48",1
"23/08/25","03:50",0.0,24.4,96.4,1005.7,307.7,0.5,0.6,331.4,0.00,23.8,25.8,"03:41:36",1
"23/08/25","04:00",0.0,24.5,96.4,1005.5,292.7,0.2,1.3,242.8,0.00,23.9,25.7,"03:55:36",1
"23/08/25","04:10",0.0,24.5,96.4,1005.5,347.4,0.5,1.1,5.5,0.00,23.9,25.7,"04:04:24",1
"23/08/25","04:20",0.0,24.5,96.4,1005.7,341.7,0.2,0.8,311.4,0.00,23.9,25.9,"04:19:04",1
"23/08/25","04:30",0.0,24.4,96.4,1005.7,314.0,0.6,1.1,312.2,0.00,23.8,25.8,"04:20:40",1
"23/08/25","04:40",0.0,24.4,96.5,1005.7,332.9,0.2,0.8,318.2,0.00,23.8,26.0,"04:34:16",1
"23/08/25","04:50",0.0,24.3,96.5,1005.5,307.2,0.2,0.5,289.7,0.00,23.7,25.7,"04:46:08",1
"23/08/25","05:00",0.0,24.4,96.5,1005.2,326.6,0.5,1.0,325.6,0.00,23.8,25.7,"04:58:00",1
"23/08/25","05:10",0.0,24.3,96.5,1005.5,328.6,0.2,0.6,308.1,0.00,23.7,26.0,"05:00:08",1
"23/08/25","05:20",0.0,24.2,96.5,1005.7,162.6,0.2,0.6,258.6,0.00,23.6,25.8,"05:10:02",1
"23/08/25","05:30",0.0,24.3,96.6,1005.5,309.8,0.5,0.9,333.1,0.00,23.8,25.7,"05:20:02",1
"23/08/25","05:40",0.0,24.4,96.6,1006.0,345.0,0.5,1.0,334.8,0.00,23.9,25.8,"05:37:20",1
"23/08/25","05:50",0.0,24.4,96.6,1005.7,309.3,0.3,0.6,17.7,0.00,23.9,25.7,"05:43:04",1
"23/08/25","06:00",0.0,24.5,96.6,1005.5,216.3,0.1,0.5,206.0,0.00,24.0,25.7,"05:58:00",1
"23/08/25","06:10",0.0,24.7,96.6,1005.5,26.9,0.0,0.3,27.6,0.00,24.2,25.6,"06:01:04",1
"23/08/25","06:20",0.0,24.9,96.6,1006.0,351.4,0.5,1.1,332.4,0.03,24.4,25.8,"06:13:36",1
"23/08/25","06:30",0.0,25.0,96.6,1005.7,321.6,0.3,1.0,336.0,0.03,24.5,25.8,"06:29:20",1
"23/08/25","06:40",0.0,25.2,96.6,1005.5,330.3,0.7,1.2,350.1,0.06,24.7,25.6,"06:36:24",1
"23/08/25","06:50",0.0,25.7,96.6,1005.5,358.7,0.5,1.0,339.9,0.11,25.2,25.7,"06:41:44",1
"23/08/25","07:00",0.0,25.8,96.5,1005.7,302.3,0.2,0.8,269.3,0.08,25.2,25.7,"06:56:08",1
"23/08/25","07:10",0.0,26.4,96.5,1005.5,253.7,0.2,0.9,243.7,0.17,25.8,25.7,"07:08:00",1
"23/08/25","07:20",0.0,27.0,96.1,1005.5,213.7,0.3,1.2,211.8,0.22,26.4,25.8,"07:13:20",1
"23/08/25","07:30",0.0,27.8,96.2,1005.0,3.8,0.3,0.9,58.3,0.24,27.2,25.7,"07:24:48",1
"23/08/25","07:40",0.0,28.7,95.5,1004.5,62.9,0.3,1.2,57.6,0.25,27.9,25.9,"07:33:04",1
"23/08/25","07:50",0.0,28.6,95.3,1005.2,98.8,0.5,1.3,115.1,0.28,27.8,25.8,"07:42:24",1
"23/08/25","08:00",0.0,26.8,94.5,1005.0,5.8,0.7,1.6,358.5,0.06,25.9,25.7,"07:52:16",1
"23/08/25","08:10",0.0,27.0,94.4,1005.2,7.9,0.2,0.6,45.8,0.04,26.1,25.8,"08:00:24",1
"23/08/25","08:20",0.0,26.7,94.0,1005.0,352.2,0.5,1.3,344.9,0.13,25.7,25.8,"08:19:12",1
"23/08/25","08:30",0.0,28.0,93.1,1005.2,1.8,0.3,1.2,261.7,0.30,26.8,25.9,"08:20:16",1
"23/08/25","08:40",0.0,28.5,92.1,1006.0,142.4,0.8,1.9,122.7,0.26,27.1,25.9,"08:33:12",1
"23/08/25","08:50",0.0,28.6,89.1,1006.2,124.6,0.6,1.7,186.9,0.16,26.7,25.8,"08:44:16",1
"23/08/25","09:00",0.0,29.2,87.1,1006.7,174.9,0.7,1.6,187.8,0.23,26.9,25.9,"08:53:04",1
"23/08/25","09:10",0.0,30.5,80.0,1006.7,147.0,1.3,3.1,74.3,0.39,26.7,26.0,"09:04:32",1
"23/08/25","09:20",0.0,30.8,76.8,1006.9,168.6,1.7,4.0,211.6,0.38,26.3,26.1,"09:10:48",1
"23/08/25","09:30",0.0,30.9,74.1,1006.9,158.1,1.3,3.6,214.7,0.39,25.8,26.1,"09:24:08",1
"23/08/25","09:40",0.0,31.3,72.2,1006.7,173.6,1.2,3.4,178.1,0.42,25.7,25.9,"09:37:20",1
"23/08/25","09:50",0.0,30.6,72.3,1006.9,149.1,1.0,2.5,201.2,0.23,25.1,26.3,"09:48:32",1
"23/08/25","10:00",0.0,31.5,71.6,1007.1,170.8,1.1,4.8,235.0,0.42,25.8,26.2,"09:59:04",1
"23/08/25","10:10",0.0,31.1,71.9,1006.7,215.3,1.1,3.1,199.3,0.30,25.5,26.2,"10:00:48",1
"23/08/25","10:20",0.0,31.6,70.8,1006.9,197.9,1.7,4.3,239.7,0.44,25.7,26.3,"10:13:12",1
"23/08/25","10:30",0.0,31.6,68.6,1006.7,192.4,1.7,3.5,214.6,0.44,25.2,26.6,"10:21:28",1
"23/08/25","10:40",0.0,32.0,68.2,1006.9,148.5,1.3,2.7,138.8,0.43,25.4,26.4,"10:39:36",1
"23/08/25","10:50",0.0,32.3,66.4,1006.7,139.7,1.5,2.9,171.7,0.49,25.3,26.5,"10:41:36",1
"23/08/25","11:00",0.0,32.7,67.0,1006.9,155.9,1.1,2.2,117.7,0.41,25.8,26.4,"10:57:28",1
"23/08/25","11:10",0.0,33.5,64.4,1006.7,154.4,1.0,2.7,187.1,0.59,25.9,26.6,"11:02:08",1
"23/08/25","11:20",0.0,33.7,62.7,1006.9,139.5,1.5,3.1,184.9,0.53,25.6,26.8,"11:14:00",1
"23/08/25","11:30",0.0,34.1,61.6,1006.9,128.1,1.1,3.1,158.1,0.56,25.7,26.7,"11:21:12",1
"23/08/25","11:40",0.0,33.5,60.4,1006.4,144.0,1.2,3.6,150.7,0.44,24.8,26.9,"11:34:08",1
"23/08/25","11:50",0.0,33.9,61.4,1006.4,172.4,1.7,3.6,226.8,0.54,25.5,27.1,"11:43:36",1
"23/08/25","12:00",0.0,33.2,62.4,1006.2,116.3,1.2,2.6,165.6,0.28,25.1,27.1,"11:50:16",1
"23/08/25","12:10",0.0,33.3,62.4,1005.7,56.3,1.0,2.1,123.1,0.27,25.2,27.0,"12:06:52",1
"23/08/25","12:20",0.0,33.2,63.6,1005.2,49.8,0.7,2.6,14.1,0.23,25.4,27.1,"12:12:48",1
"23/08/25","12:30",0.0,32.9,63.8,1004.8,19.5,1.0,2.5,356.5,0.18,25.2,27.2,"12:20:08",1
"23/08/25","12:40",0.0,33.8,62.6,1005.0,144.3,1.1,1.9,158.0,0.53,25.7,27.3,"12:30:56",1
"23/08/25","12:50",0.0,33.3,62.5,1005.2,120.3,1.0,2.8,109.2,0.12,25.2,27.2,"12:42:00",1
"23/08/25","13:00",0.0,32.9,63.8,1004.8,81.8,0.7,1.7,82.6,0.09,25.2,27.2,"12:52:08",1
"23/08/25","13:10",0.0,32.5,66.2,1004.1,89.3,0.7,1.3,89.5,0.10,25.4,27.3,"13:04:24",1
"23/08/25","13:20",0.0,33.6,63.6,1004.3,16.4,1.5,3.4,27.8,0.56,25.8,27.4,"13:18:24",1
"23/08/25","13:30",0.0,33.9,62.1,1004.5,15.3,1.0,2.8,344.3,0.23,25.7,27.4,"13:20:08",1
"23/08/25","13:40",0.0,32.9,63.9,1004.1,355.8,1.2,3.2,5.5,0.07,25.2,27.4,"13:36:16",1
"23/08/25","13:50",0.0,32.2,66.4,1003.8,23.3,0.7,2.0,355.9,0.04,25.2,27.4,"13:48:56",1
"23/08/25","14:00",0.0,32.1,67.8,1003.1,16.4,1.0,2.8,13.5,0.10,25.4,27.3,"13:54:40",1
"23/08/25","14:10",0.0,32.2,69.4,1003.1,359.9,1.1,2.4,13.4,0.17,25.9,27.4,"14:08:40",1
"23/08/25","14:20",0.0,31.9,69.1,1002.9,347.5,1.5,2.5,355.8,0.08,25.6,27.5,"14:13:04",1
"23/08/25","14:30",0.0,31.7,70.4,1002.6,30.2,0.6,1.9,10.4,0.07,25.7,27.5,"14:21:28",1
"23/08/25","14:40",0.0,32.0,67.3,1002.6,153.7,0.6,1.7,194.3,0.06,25.2,27.4,"14:32:24",1
"23/08/25","14:50",0.0,32.1,65.7,1002.6,85.0,0.8,1.9,78.4,0.03,24.9,27.5,"14:44:48",1
"23/08/25","15:00",0.0,31.9,66.3,1002.2,20.4,0.8,2.1,4.5,0.04,24.9,27.5,"14:58:40",1
"23/08/25","15:10",0.0,31.5,67.2,1001.9,18.8,1.1,3.1,61.1,0.00,24.7,27.3,"15:06:48",1
"23/08/25","15:20",3.0,30.7,70.8,1002.4,124.1,1.5,6.3,204.3,0.00,24.8,27.5,"15:19:44",1
"23/08/25","15:30",5.8,27.8,79.9,1001.0,92.5,1.8,5.0,137.4,0.01,24.1,27.2,"15:20:56",1
"23/08/25","15:40",0.0,27.0,83.9,1001.7,343.2,1.8,3.3,335.9,0.01,24.1,27.2,"15:32:08",1
"23/08/25","15:50",2.0,26.4,85.7,1001.7,348.7,1.3,3.2,337.3,0.00,23.8,27.3,"15:42:40",1
"23/08/25","16:00",0.2,26.3,87.3,1001.9,296.3,1.0,2.4,324.3,0.00,24.1,27.2,"15:53:28",1
"23/08/25","16:10",0.0,26.6,88.3,1001.9,264.0,1.0,2.2,242.2,0.02,24.5,27.2,"16:03:52",1
"23/08/25","16:20",0.0,26.4,89.1,1002.2,283.8,1.1,2.6,302.3,0.05,24.5,27.2,"16:18:32",1
"23/08/25","16:30",0.0,26.2,89.6,1002.4,311.5,1.3,2.8,343.0,0.05,24.4,27.1,"16:21:52",1
"23/08/25","16:40",0.0,26.4,89.9,1002.9,291.6,1.1,2.6,208.5,0.04,24.6,27.2,"16:37:04",1
"23/08/25","16:50",0.0,26.5,90.2,1002.6,312.2,0.7,1.9,355.5,0.03,24.8,27.0,"16:44:32",1
"23/08/25","17:00",0.0,26.5,90.4,1002.6,296.7,0.7,2.1,334.7,0.00,24.8,27.1,"16:50:08",1
"23/08/25","17:10",0.0,26.5,90.6,1002.9,316.2,0.7,2.1,322.4,0.00,24.9,27.1,"17:00:08",1
"23/08/25","17:20",0.0,26.6,90.7,1002.9,344.7,0.7,1.7,18.0,0.01,25.0,27.4,"17:15:28",1
"23/08/25","17:30",0.0,26.5,90.8,1002.9,332.8,1.1,1.9,355.8,0.01,24.9,27.2,"17:29:12",1
"23/08/25","17:40",0.0,26.4,91.1,1003.4,303.8,1.0,1.9,255.2,0.00,24.9,26.8,"17:38:00",1
"23/08/25","17:50",0.0,26.3,91.2,1003.4,305.0,1.2,2.7,319.5,0.00,24.8,27.2,"17:44:48",1
"23/08/25","18:00",0.0,26.1,91.3,1003.1,315.8,1.2,2.5,304.9,0.00,24.6,26.8,"17:54:00",1
"23/08/25","18:10",0.0,26.1,91.3,1003.4,333.7,1.5,2.8,336.2,0.00,24.6,27.0,"18:07:52",1
"23/08/25","18:20",0.0,26.0,91.4,1003.4,320.8,1.2,2.5,332.2,0.00,24.5,26.7,"18:11:44",1
"23/08/25","18:30",0.0,25.9,91.5,1003.6,301.2,0.7,1.3,332.7,0.00,24.4,27.0,"18:20:16",1
"23/08/25","18:40",0.0,25.8,91.5,1003.8,327.4,1.3,2.4,315.4,0.00,24.3,26.9,"18:35:28",1
"23/08/25","18:50",0.0,25.9,91.6,1003.8,292.0,0.7,1.0,346.8,0.00,24.5,27.0,"18:40:08",1
"23/08/25","19:00",0.0,25.9,91.6,1003.8,309.6,0.5,1.2,331.1,0.00,24.5,26.9,"18:58:32",1
"23/08/25","19:10",0.0,25.9,91.7,1003.8,307.8,0.6,1.4,332.3,0.00,24.5,26.9,"19:00:24",1
"23/08/25","19:20",0.0,25.9,91.7,1004.1,306.0,0.7,1.2,307.7,0.00,24.5,26.9,"19:17:52",1
"23/08/25","19:30",0.0,25.9,91.8,1004.1,320.2,0.5,1.1,318.7,0.00,24.5,26.8,"19:24:00",1
"23/08/25","19:40",0.0,25.9,91.8,1004.3,314.7,1.0,1.8,334.8,0.00,24.5,26.9,"19:37:44",1
"23/08/25","19:50",0.0,25.8,91.9,1004.3,277.5,0.6,1.0,298.6,0.00,24.4,26.8,"19:47:36",1
"23/08/25","20:00",0.0,25.8,92.0,1004.3,313.2,0.6,1.3,333.2,0.00,24.4,26.8,"19:52:48",1
"23/08/25","20:10",0.0,25.7,92.1,1004.5,339.9,0.3,1.0,356.5,0.00,24.4,26.6,"20:08:00",1
"23/08/25","20:20",0.0,25.7,92.2,1004.5,320.6,1.0,2.9,323.3,0.00,24.4,26.8,"20:18:32",1
"23/08/25","20:30",0.0,25.6,92.3,1004.8,323.9,0.3,1.2,347.6,0.00,24.3,26.9,"20:20:48",1
"23/08/25","20:40",0.0,25.6,92.4,1004.8,296.5,0.5,0.9,304.3,0.00,24.3,26.8,"20:37:44",1
"23/08/25","20:50",0.0,25.6,92.5,1005.0,301.5,0.7,1.0,330.1,0.00,24.3,26.8,"20:45:12",1
"23/08/25","21:00",0.0,25.5,92.6,1004.8,309.9,0.8,1.4,338.9,0.00,24.3,26.7,"20:57:52",1
"23/08/25","21:10",0.0,25.5,92.7,1004.8,312.8,0.7,1.1,343.6,0.00,24.3,26.6,"21:09:28",1
"23/08/25","21:20",0.0,25.6,92.8,1004.8,278.1,0.7,1.0,312.1,0.00,24.4,26.7,"21:13:44",1
"23/08/25","21:30",0.0,25.4,92.7,1005.0,317.4,1.1,2.6,326.1,0.00,24.2,26.6,"21:29:52",1
"23/08/25","21:40",0.0,25.5,92.7,1004.8,333.3,1.2,2.8,335.7,0.00,24.3,26.7,"21:37:04",1
"23/08/25","21:50",0.0,25.5,92.6,1005.2,327.0,1.6,3.3,344.1,0.00,24.3,26.7,"21:45:28",1
"23/08/25","22:00",0.0,25.5,92.5,1004.8,326.6,1.5,2.8,337.3,0.00,24.2,26.7,"21:57:12",1
"23/08/25","22:10",0.0,25.6,92.4,1005.0,333.8,1.6,2.8,331.0,0.00,24.3,26.7,"22:04:08",1
"23/08/25","22:20",0.0,25.5,92.3,1004.8,311.9,1.1,2.5,335.9,0.00,24.2,26.7,"22:10:32",1
"23/08/25","22:30",0.0,25.5,92.3,1004.8,304.0,0.8,2.1,312.0,0.00,24.2,26.7,"22:20:40",1
"23/08/25","22:40",0.0,25.4,92.3,1005.0,301.4,0.7,1.3,348.9,0.00,24.1,26.5,"22:36:16",1
"23/08/25","22:50",0.0,25.3,92.4,1005.0,315.0,1.2,2.4,314.1,0.00,24.0,26.7,"22:45:12",1
"23/08/25","23:00",0.0,25.3,92.4,1005.0,324.2,1.1,2.0,306.1,0.00,24.0,26.5,"22:50:08",1
"23/08/25","23:10",0.0,25.3,92.4,1004.8,334.9,0.8,1.6,349.3,0.00,24.0,26.5,"23:00:08",1
"23/08/25","23:20",0.0,25.3,92.5,1005.0,334.6,0.5,1.3,339.5,0.00,24.0,26.6,"23:17:36",1
"23/08/25","23:30",0.0,25.2,92.5,1004.5,273.3,0.7,0.9,339.2,0.00,23.9,26.5,"23:20:32",1
"23/08/25","23:40",0.0,25.0,92.6,1004.3,289.5,0.7,1.0,306.3,0.00,23.8,26.5,"23:32:08",1
"23/08/25","23:50",0.0,25.0,92.8,1004.5,291.2,0.6,1.2,341.4,0.00,23.8,26.5,"23:47:52",1
"23/08/25","24:00",0.0,25.0,92.8,1004.8,315.9,0.6,0.8,319.5,0.00,23.8,26.4,"23:50:08",1
